TimePST,TemperatureF,Dew PointF,Humidity,Sea Level PressureIn,VisibilityMPH,Wind Direction,Wind SpeedMPH,Gust SpeedMPH,PrecipitationIn,Events,Conditions,WindDirDegrees,DateUTC
12:03 AM,23.0,19.4,86,30.04,5.0,NNW,3.5,-,N/A,,Scattered Clouds,340,2013-01-08 08:03:00
12:52 AM,25.0,21.9,88,30.11,9.0,WSW,5.8,-,N/A,,Clear,240,2013-01-08 08:52:00
1:52 AM,24.1,21.9,91,30.12,8.0,South,3.5,-,N/A,,Clear,180,2013-01-08 09:52:00
2:52 AM,25.0,21.9,88,30.14,9.0,WSW,4.6,-,N/A,,Clear,240,2013-01-08 10:52:00
3:52 AM,27.0,24.1,89,30.13,10.0,Calm,Calm,-,N/A,,Clear,0,2013-01-08 11:52:00
4:52 AM,30.9,28.0,89,30.11,10.0,West,6.9,-,N/A,,Overcast,270,2013-01-08 12:52:00
5:52 AM,30.9,28.0,89,30.13,10.0,Calm,Calm,-,N/A,,Overcast,0,2013-01-08 13:52:00
6:52 AM,32.0,28.9,88,30.13,10.0,SSE,5.8,-,N/A,,Overcast,150,2013-01-08 14:52:00
7:52 AM,33.1,30.0,89,30.14,10.0,SE,4.6,-,0.00,Rain,Light Rain,140,2013-01-08 15:52:00
8:29 AM,33.8,30.2,87,30.11,7.0,SE,3.5,-,0.02,Rain,Light Rain,140,2013-01-08 16:29:00
8:52 AM,35.1,32.0,89,30.14,6.0,SSE,8.1,-,0.04,Rain,Light Rain,150,2013-01-08 16:52:00
9:52 AM,36.0,33.1,89,30.14,4.0,ESE,5.8,-,0.06,Rain,Light Rain,110,2013-01-08 17:52:00
10:17 AM,35.6,33.8,93,30.09,5.0,East,6.9,-,0.02,Rain,Light Rain,100,2013-01-08 18:17:00
10:52 AM,36.0,34.0,93,30.12,8.0,East,5.8,-,0.04,,Overcast,80,2013-01-08 18:52:00
11:23 AM,37.4,33.8,87,30.06,10.0,ESE,6.9,-,0.00,,Overcast,120,2013-01-08 19:23:00
11:37 AM,35.6,33.8,93,30.05,10.0,SE,6.9,-,0.00,,Overcast,140,2013-01-08 19:37:00
11:52 AM,36.0,34.0,93,30.08,9.0,SSE,6.9,-,0.00,,Overcast,150,2013-01-08 19:52:00
12:13 PM,35.6,33.8,93,30.02,7.0,SSE,10.4,-,0.00,,Overcast,160,2013-01-08 20:13:00
12:40 PM,35.6,33.8,93,30.01,4.0,SSE,5.8,-,0.00,,Overcast,150,2013-01-08 20:40:00
12:52 PM,36.0,34.0,93,30.05,2.5,SSE,4.6,-,0.00,,Overcast,150,2013-01-08 20:52:00
1:03 PM,35.6,33.8,93,30.00,1.0,SSE,4.6,-,N/A,,Overcast,150,2013-01-08 21:03:00
1:10 PM,35.6,33.8,93,30.00,0.5,SE,5.8,-,0.01,Fog,Fog,140,2013-01-08 21:10:00
1:16 PM,35.6,33.8,93,30.00,0.5,SE,4.6,-,0.01,Fog,Fog,130,2013-01-08 21:16:00
1:32 PM,35.6,33.8,93,30.00,0.5,SE,3.5,-,0.01,Fog,Fog,140,2013-01-08 21:32:00
1:42 PM,35.6,35.6,100,30.00,0.2,Calm,Calm,-,0.01,Fog,Fog,0,2013-01-08 21:42:00
1:52 PM,36.0,35.1,97,30.03,0.2,SE,3.5,-,0.01,Fog,Fog,130,2013-01-08 21:52:00
2:26 PM,35.6,33.8,93,29.98,0.5,South,4.6,-,0.01,Fog,Fog,170,2013-01-08 22:26:00
2:36 PM,35.6,33.8,93,29.97,0.2,SSE,4.6,-,0.01,Fog,Fog,150,2013-01-08 22:36:00
2:52 PM,36.0,34.0,93,30.00,0.2,SSE,4.6,-,0.01,Fog,Fog,150,2013-01-08 22:52:00
3:52 PM,35.1,33.1,92,29.99,0.2,SSE,5.8,-,N/A,Fog,Fog,150,2013-01-08 23:52:00
4:40 PM,35.6,33.8,93,29.92,0.8,South,4.6,-,N/A,,Mist,170,2013-01-09 00:40:00
4:48 PM,35.6,33.8,93,29.92,1.0,South,4.6,-,N/A,,Overcast,180,2013-01-09 00:48:00
4:52 PM,35.6,33.8,93,29.92,2.0,South,5.8,-,N/A,,Overcast,190,2013-01-09 00:52:00
5:00 PM,35.6,33.8,93,29.91,7.0,South,6.9,-,N/A,,Overcast,190,2013-01-09 01:00:00
5:52 PM,37.9,36.0,93,29.91,10.0,South,8.1,-,N/A,,Overcast,190,2013-01-09 01:52:00
6:34 PM,37.4,35.6,93,29.86,5.0,South,3.5,-,N/A,,Overcast,180,2013-01-09 02:34:00
6:52 PM,37.0,35.1,93,29.88,2.0,SSW,5.8,-,N/A,,Overcast,210,2013-01-09 02:52:00
6:57 PM,35.6,35.6,100,29.84,0.8,SSW,6.9,-,N/A,,Overcast,210,2013-01-09 02:57:00
7:12 PM,37.4,35.6,93,29.83,2.5,South,9.2,-,N/A,,Mostly Cloudy,190,2013-01-09 03:12:00
7:19 PM,37.4,35.6,93,29.83,7.0,SSW,9.2,-,N/A,,Scattered Clouds,200,2013-01-09 03:19:00
7:52 PM,36.0,35.1,97,29.87,1.2,SW,3.5,-,N/A,,Partly Cloudy,220,2013-01-09 03:52:00
7:54 PM,35.6,33.8,93,29.84,0.8,WSW,4.6,-,N/A,,Mist,240,2013-01-09 03:54:00
8:00 PM,35.6,33.8,93,29.84,0.2,WSW,4.6,-,N/A,Fog,Fog,240,2013-01-09 04:00:00
8:48 PM,35.6,33.8,93,29.82,0.2,Calm,Calm,-,N/A,Fog,Fog,0,2013-01-09 04:48:00
8:52 PM,34.0,33.1,96,29.86,0.2,SSE,3.5,-,N/A,Fog,Fog,160,2013-01-09 04:52:00
9:07 PM,33.8,32.0,93,29.81,0.5,Calm,Calm,-,N/A,Fog,Fog,0,2013-01-09 05:07:00
9:19 PM,35.6,33.8,93,29.81,1.0,ESE,3.5,-,N/A,,Mist,110,2013-01-09 05:19:00
9:25 PM,35.6,33.8,93,29.81,2.0,SE,4.6,-,N/A,,Clear,130,2013-01-09 05:25:00
9:35 PM,35.6,33.8,93,29.81,4.0,SSE,4.6,-,N/A,,Clear,160,2013-01-09 05:35:00
9:52 PM,35.6,33.8,93,29.80,10.0,South,8.1,-,N/A,,Clear,170,2013-01-09 05:52:00
10:52 PM,42.1,37.0,82,29.83,10.0,South,17.3,-,N/A,,Clear,190,2013-01-09 06:52:00
11:52 PM,41.0,35.1,79,29.82,10.0,South,12.7,-,N/A,,Clear,170,2013-01-09 07:52:00